• In Kazakhstan
  • List of Countries
  • For 7 days
  • Water Temperature
  • Satellite Maps
  • Weather Map
  • News
  • Weather Widgets
  • user-avatar
    Login

    Hourly Weather San Diego

    Today, 22 September, Friday

    Time Temperature Precipitation Wind Pressure Humidity
    00:00 +17°C° 0 mm 2 mps 755 mmHg 75%
    01:00 +17°C° 0 mm 2 mps 755 mmHg 75%
    02:00 +17°C° 0 mm 2 mps 754 mmHg 76%
    03:00 +16°C° 0 mm 3 mps 754 mmHg 76%
    04:00 +16°C° 0 mm 3 mps 755 mmHg 78%
    05:00 +17°C° 0 mm 3 mps 755 mmHg 75%
    06:00 +17°C° 0 mm 3 mps 755 mmHg 72%
    07:00 +18°C° 0 mm 3 mps 755 mmHg 69%
    08:00 +19°C° 0 mm 3 mps 755 mmHg 63%
    09:00 +20°C° 0 mm 3 mps 755 mmHg 57%
    10:00 +22°C° 0 mm 3 mps 756 mmHg 51%
    11:00 +22°C° 0 mm 3 mps 755 mmHg 49%
    12:00 +24°C° 0 mm 3 mps 755 mmHg 48%
    13:00 +25°C° 0 mm 4 mps 755 mmHg 46%
    14:00 +23°C° 0 mm 4 mps 754 mmHg 49%
    15:00 +23°C° 0 mm 5 mps 754 mmHg 52%
    16:00 +23°C° 0 mm 5 mps 754 mmHg 55%
    17:00 +22°C° 0 mm 5 mps 754 mmHg 60%
    18:00 +21°C° 0 mm 5 mps 754 mmHg 66%
    19:00 +20°C° 0 mm 5 mps 754 mmHg 71%
    20:00 +19°C° 0 mm 4 mps 754 mmHg 72%
    21:00 +19°C° 0 mm 4 mps 754 mmHg 74%
    22:00 +18°C° 0 mm 4 mps 754 mmHg 75%
    23:00 +18°C° 0 mm 3 mps 754 mmHg 75%

    Tomorrow, 23 September, Saturday

    Time Temperature Precipitation Wind Pressure Humidity
    00:00 +18°C° 0 mm 2 mps 754 mmHg 75%
    01:00 +17°C° 0 mm 2 mps 754 mmHg 76%
    02:00 +17°C° 0 mm 2 mps 754 mmHg 75%
    03:00 +18°C° 0 mm 1 mps 754 mmHg 75%
    04:00 +16°C° 0 mm 1 mps 754 mmHg 75%
    05:00 +18°C° 0 mm 1 mps 754 mmHg 71%
    06:00 +19°C° 0 mm 1 mps 755 mmHg 68%
    07:00 +19°C° 0 mm 1 mps 755 mmHg 65%
    08:00 +20°C° 0 mm 1 mps 755 mmHg 59%
    09:00 +21°C° 0 mm 2 mps 755 mmHg 53%
    10:00 +23°C° 0 mm 2 mps 755 mmHg 47%
    11:00 +24°C° 0 mm 3 mps 755 mmHg 46%
    12:00 +24°C° 0 mm 3 mps 754 mmHg 46%
    13:00 +25°C° 0 mm 4 mps 754 mmHg 45%
    14:00 +25°C° 0 mm 4 mps 754 mmHg 49%
    15:00 +24°C° 0 mm 3 mps 754 mmHg 52%
    16:00 +24°C° 0 mm 3 mps 754 mmHg 56%
    17:00 +22°C° 0 mm 3 mps 754 mmHg 60%
    18:00 +21°C° 0 mm 2 mps 754 mmHg 65%
    19:00 +21°C° 0 mm 2 mps 755 mmHg 69%
    20:00 +20°C° 0 mm 2 mps 755 mmHg 70%
    21:00 +20°C° 0 mm 2 mps 755 mmHg 71%
    22:00 +20°C° 0 mm 2 mps 755 mmHg 72%
    23:00 +20°C° 0 mm 2 mps 755 mmHg 72%

    Day after tomorrow, 24 September, Sunday

    Time Temperature Precipitation Wind Pressure Humidity
    00:00 +20°C° 0 mm 2 mps 755 mmHg 71%
    01:00 +20°C° 0 mm 2 mps 755 mmHg 71%
    02:00 +20°C° 0 mm 2 mps 755 mmHg 68%
    03:00 +20°C° 0 mm 2 mps 755 mmHg 66%
    04:00 +19°C° 0 mm 2 mps 754 mmHg 63%
    05:00 +20°C° 0 mm 2 mps 755 mmHg 55%
    06:00 +23°C° 0 mm 2 mps 755 mmHg 48%
    07:00 +24°C° 0 mm 2 mps 756 mmHg 41%
    08:00 +25°C° 0 mm 2 mps 756 mmHg 35%
    09:00 +27°C° 0 mm 3 mps 756 mmHg 29%
    10:00 +29°C° 0 mm 3 mps 756 mmHg 23%
    11:00 +29°C° 0 mm 3 mps 756 mmHg 23%
    12:00 +30°C° 0 mm 4 mps 755 mmHg 23%
    13:00 +30°C° 0 mm 5 mps 755 mmHg 23%
    14:00 +30°C° 0 mm 5 mps 755 mmHg 24%
    15:00 +30°C° 0 mm 5 mps 754 mmHg 25%
    16:00 +29°C° 0 mm 5 mps 754 mmHg 26%
    17:00 +28°C° 0 mm 4 mps 754 mmHg 29%
    18:00 +27°C° 0 mm 4 mps 755 mmHg 33%
    19:00 +25°C° 0 mm 3 mps 755 mmHg 36%
    20:00 +25°C° 0 mm 3 mps 755 mmHg 37%
    21:00 +24°C° 0 mm 3 mps 755 mmHg 37%
    22:00 +24°C° 0 mm 2 mps 756 mmHg 37%
    23:00 +23°C° 0 mm 2 mps 755 mmHg 36%

    25 September, Monday

    Time Temperature Precipitation Wind Pressure Humidity
    00:00 +23°C° 0 mm 2 mps 755 mmHg 35%
    01:00 +23°C° 0 mm 2 mps 755 mmHg 33%
    02:00 +23°C° 0 mm 2 mps 755 mmHg 31%
    03:00 +21°C° 0 mm 2 mps 754 mmHg 30%
    04:00 +21°C° 0 mm 2 mps 754 mmHg 28%
    05:00 +23°C° 0 mm 2 mps 754 mmHg 26%
    06:00 +25°C° 0 mm 1 mps 755 mmHg 24%
    07:00 +26°C° 0 mm 1 mps 755 mmHg 22%
    08:00 +27°C° 0 mm 2 mps 755 mmHg 19%
    09:00 +29°C° 0 mm 2 mps 755 mmHg 17%
    10:00 +31°C° 0 mm 2 mps 755 mmHg 14%
    11:00 +31°C° 0 mm 3 mps 755 mmHg 14%
    12:00 +33°C° 0 mm 4 mps 754 mmHg 15%
    13:00 +33°C° 0 mm 4 mps 754 mmHg 15%
    14:00 +33°C° 0 mm 4 mps 754 mmHg 16%
    15:00 +32°C° 0 mm 4 mps 753 mmHg 18%
    16:00 +32°C° 0 mm 4 mps 753 mmHg 19%
    17:00 +29°C° 0 mm 4 mps 753 mmHg 23%
    18:00 +28°C° 0 mm 3 mps 754 mmHg 26%
    19:00 +26°C° 0 mm 2 mps 754 mmHg 30%
    20:00 +26°C° 0 mm 2 mps 754 mmHg 30%
    21:00 +25°C° 0 mm 2 mps 754 mmHg 30%
    22:00 +25°C° 0 mm 2 mps 754 mmHg 30%
    23:00 +24°C° 0 mm 2 mps 754 mmHg 29%

    26 September, Tuesday

    Time Temperature Precipitation Wind Pressure Humidity
    00:00 +24°C° 0 mm 1 mps 754 mmHg 28%
    01:00 +24°C° 0 mm 1 mps 753 mmHg 28%
    02:00 +24°C° 0 mm 1 mps 753 mmHg 27%
    03:00 +23°C° 0 mm 1 mps 753 mmHg 26%
    04:00 +23°C° 0 mm 1 mps 753 mmHg 25%
    05:00 +24°C° 0 mm 1 mps 754 mmHg 24%
    06:00 +26°C° 0 mm 1 mps 754 mmHg 23%
    07:00 +27°C° 0 mm 1 mps 754 mmHg 22%
    08:00 +29°C° 0 mm 1 mps 754 mmHg 20%
    09:00 +30°C° 0 mm 1 mps 754 mmHg 17%
    10:00 +32°C° 0 mm 2 mps 754 mmHg 15%
    11:00 +34°C° 0 mm 3 mps 754 mmHg 14%
    12:00 +34°C° 0 mm 3 mps 753 mmHg 14%
    13:00 +35°C° 0 mm 4 mps 753 mmHg 14%
    14:00 +34°C° 0 mm 4 mps 753 mmHg 15%
    15:00 +34°C° 0 mm 4 mps 753 mmHg 17%
    16:00 +33°C° 0 mm 4 mps 753 mmHg 18%
    17:00 +32°C° 0 mm 4 mps 753 mmHg 22%
    18:00 +29°C° 0 mm 3 mps 753 mmHg 26%
    19:00 +27°C° 0 mm 2 mps 754 mmHg 30%
    20:00 +27°C° 0 mm 2 mps 754 mmHg 30%
    21:00 +26°C° 0 mm 1 mps 754 mmHg 31%
    22:00 +26°C° 0 mm 1 mps 754 mmHg 31%
    23:00 +25°C° 0 mm 1 mps 754 mmHg 31%

    27 September, Wednesday

    Time Temperature Precipitation Wind Pressure Humidity
    00:00 +25°C° 0 mm 1 mps 754 mmHg 30%
    01:00 +25°C° 0 mm 1 mps 753 mmHg 30%
    02:00 +25°C° 0 mm 1 mps 753 mmHg 29%
    03:00 +24°C° 0 mm 1 mps 753 mmHg 28%
    04:00 +24°C° 0 mm 1 mps 753 mmHg 27%
    05:00 +25°C° 0 mm 1 mps 754 mmHg 26%
    06:00 +27°C° 0 mm 1 mps 754 mmHg 25%
    07:00 +28°C° 0 mm 1 mps 754 mmHg 24%
    08:00 +30°C° 0 mm 1 mps 754 mmHg 21%
    09:00 +31°C° 0 mm 2 mps 754 mmHg 18%
    10:00 +34°C° 0 mm 2 mps 755 mmHg 15%
    11:00 +35°C° 0 mm 3 mps 754 mmHg 16%
    12:00 +35°C° 0 mm 3 mps 754 mmHg 16%
    13:00 +35°C° 0 mm 4 mps 754 mmHg 16%
    14:00 +35°C° 0 mm 4 mps 754 mmHg 17%
    15:00 +34°C° 0 mm 4 mps 753 mmHg 18%
    16:00 +34°C° 0 mm 4 mps 753 mmHg 19%
    17:00 +31°C° 0 mm 3 mps 754 mmHg 23%
    18:00 +30°C° 0 mm 2 mps 754 mmHg 26%
    19:00 +28°C° 0 mm 1 mps 754 mmHg 30%
    20:00 +27°C° 0 mm 2 mps 754 mmHg 31%
    21:00 +27°C° 0 mm 2 mps 754 mmHg 31%
    22:00 +26°C° 0 mm 2 mps 755 mmHg 31%
    23:00 +26°C° 0 mm 2 mps 754 mmHg 31%
    Show more